Weather History for Cloquet, MN

Change the Weather History Date:

Tuesday, June 10, 2014

  Actual Average Record
Temperature  
Mean Temperature 56 °F -  
Max Temperature 71 °F 65 °F 87 °F (2012)
Min Temperature 41 °F 44 °F 32 °F (2006)
Degree Days  
Heating Degree Days 9    
Growing Degree Days 6 (Base 50)    
Moisture  
Dew Point 46 °F    
Average Humidity 71    
Maximum Humidity 100    
Minimum Humidity 43    
Precipitation  
Precipitation 0.00 in - - ()
Sea Level Pressure  
Sea Level Pressure 29.97 in    
Wind  
Wind Speed 3 mph (ESE)    
Max Wind Speed 10 mph    
Max Gust Speed 17 mph    
Visibility 10 miles    
Events      
Averages and records for this station are not official NWS values.
T = Trace of Precipitation, MM = Missing Value Source: NWS Daily Summary

Daily Weather History Graph

Daily Weather History Graph

Search for Another Location

Airport:

Trip Planner

Search our weather history database for the weather conditions in past years. The results will help you decide how hot, cold, wet, or windy it might be!

Date:

Astronomy

Jun. 10, 2014 Rise Set
Actual Time 5:16 AM CDT 9:02 PM CDT
Civil Twilight 4:37 AM CDT 9:42 PM CDT
Nautical Twilight 3:44 AM CDT 10:35 PM CDT
Astronomical Twilight 2:29 AM CDT 11:51 PM CDT
Moon 6:20 PM CDT (6/10) 3:32 AM CDT (6/10)
Length of Visible Light 17h 04m
Length of Day
15h 46m
Waxing Gibbous, 92% of the Moon is Illuminated
Jun 10
Waxing Gibbous
Jun 12
Full
Jun 19
Last Quarter
Jun 27
New
Jul 5
First Quarter

Hourly Weather History & Observations

Time (CDT) Temp. Windchill Dew Point Humidity Pressure Visibility Wind Dir Wind Speed Gust Speed Precip Events Conditions
12:17 AM 46.4 °F 45.2 °F 42.8 °F 87% 29.99 in 10.0 mi SE 3.5 mph - N/A   Clear
12:36 AM 44.6 °F - 42.8 °F 93% 29.99 in 10.0 mi Calm Calm - N/A   Clear
12:57 AM 44.6 °F - 42.8 °F 93% 29.99 in 10.0 mi Calm Calm - N/A   Clear
1:16 AM 44.6 °F - 42.8 °F 93% 29.99 in 10.0 mi Calm Calm - N/A   Clear
1:36 AM 44.6 °F - 42.8 °F 93% 29.99 in 10.0 mi Calm Calm - N/A   Clear
1:57 AM 42.8 °F - 41.0 °F 93% 29.99 in 10.0 mi Calm Calm - N/A   Clear
2:16 AM 42.8 °F - 41.0 °F 93% 29.99 in 5.0 mi Calm Calm - N/A   Clear
2:36 AM 42.8 °F - 42.8 °F 100% 29.99 in 7.0 mi Calm Calm - N/A   Clear
2:57 AM 42.8 °F - 41.0 °F 93% 29.99 in 7.0 mi Calm Calm - N/A   Clear
3:16 AM 41.0 °F - 39.2 °F 93% 29.99 in 10.0 mi Calm Calm - N/A   Clear
3:37 AM 41.0 °F - 39.2 °F 93% 29.99 in 10.0 mi Calm Calm - N/A   Clear
3:56 AM 41.0 °F - 39.2 °F 93% 29.99 in 10.0 mi Calm Calm - N/A   Clear
4:16 AM 41.0 °F - 37.4 °F 87% 29.99 in 10.0 mi Calm Calm - N/A   Clear
4:37 AM 41.0 °F - 39.2 °F 93% 29.99 in 10.0 mi Calm Calm - N/A   Clear
4:56 AM 41.0 °F - 39.2 °F 93% 30.00 in 10.0 mi Calm Calm - N/A   Clear
5:16 AM 42.8 °F 41.1 °F 41.0 °F 93% 30.00 in 10.0 mi East 3.5 mph - N/A   Clear
5:37 AM 42.8 °F - 39.2 °F 87% 30.00 in 10.0 mi Calm Calm - N/A   Clear
5:56 AM 41.0 °F - 39.2 °F 93% 30.01 in 7.0 mi Calm Calm - N/A   Clear
6:16 AM 42.8 °F - 42.8 °F 100% 30.01 in 10.0 mi Calm Calm - N/A   Clear
6:37 AM 44.6 °F - 42.8 °F 93% 30.02 in 10.0 mi Calm Calm - N/A   Clear
6:56 AM 44.6 °F 43.1 °F 42.8 °F 93% 30.02 in 10.0 mi East 3.5 mph - N/A   Clear
7:17 AM 46.4 °F - 44.6 °F 93% 30.01 in 10.0 mi Calm Calm - N/A   Clear
7:36 AM 48.2 °F - 44.6 °F 87% 30.01 in 10.0 mi ESE 3.5 mph - N/A   Clear
7:56 AM 51.8 °F - 46.4 °F 82% 30.01 in 10.0 mi Calm Calm - N/A   Clear
8:17 AM 53.6 °F - 46.4 °F 77% 30.01 in 10.0 mi Calm Calm - N/A   Clear
8:56 AM 57.2 °F - 46.4 °F 67% 30.01 in 10.0 mi ESE 5.8 mph - N/A   Clear
9:17 AM 57.2 °F - 46.4 °F 67% 30.02 in 10.0 mi East 4.6 mph - N/A   Clear
9:36 AM 60.8 °F - 48.2 °F 63% 30.01 in 10.0 mi ESE 3.5 mph - N/A   Clear
10:16 AM 64.4 °F - 50.0 °F 59% 30.00 in 10.0 mi ESE 4.6 mph - N/A   Clear
10:36 AM 64.4 °F - 51.8 °F 64% 30.00 in 10.0 mi SE 4.6 mph - N/A   Clear
10:57 AM 66.2 °F - 48.2 °F 52% 30.00 in 10.0 mi SSE 6.9 mph - N/A   Clear
11:16 AM 66.2 °F - 50.0 °F 56% 29.99 in 10.0 mi SSE 4.6 mph - N/A   Clear
11:36 AM 68.0 °F - 48.2 °F 49% 29.98 in 10.0 mi South 3.5 mph - N/A   Clear
12:16 PM 69.8 °F - 48.2 °F 46% 29.98 in 10.0 mi SSE 5.8 mph 17.3 mph N/A   Scattered Clouds
12:36 PM 69.8 °F - 48.2 °F 46% 29.97 in 10.0 mi Calm Calm - N/A   Scattered Clouds
12:57 PM 69.8 °F - 48.2 °F 46% 29.96 in 10.0 mi SE 5.8 mph 16.1 mph N/A   Scattered Clouds
1:16 PM 69.8 °F - 48.2 °F 46% 29.96 in 10.0 mi SSE 8.1 mph - N/A   Scattered Clouds
1:37 PM 71.6 °F - 50.0 °F 46% 29.96 in 10.0 mi ESE 6.9 mph - N/A   Mostly Cloudy
2:16 PM 71.6 °F - 48.2 °F 43% 29.95 in 10.0 mi East 10.4 mph - N/A   Clear
2:36 PM 71.6 °F - 48.2 °F 43% 29.95 in 10.0 mi ESE 6.9 mph - N/A   Scattered Clouds
2:56 PM 71.6 °F - 50.0 °F 46% 29.95 in 10.0 mi ESE 6.9 mph - N/A   Scattered Clouds
3:16 PM 71.6 °F - 48.2 °F 43% 29.95 in 10.0 mi ESE 6.9 mph - N/A   Scattered Clouds
3:36 PM 71.6 °F - 48.2 °F 43% 29.94 in 10.0 mi East 9.2 mph - N/A   Clear
4:16 PM 71.6 °F - 48.2 °F 43% 29.94 in 10.0 mi East 9.2 mph - N/A   Scattered Clouds
4:36 PM 71.6 °F - 50.0 °F 46% 29.94 in 10.0 mi ESE 5.8 mph - N/A   Clear
4:57 PM 71.6 °F - 48.2 °F 43% 29.94 in 10.0 mi SE 9.2 mph - N/A   Clear
5:16 PM 69.8 °F - 50.0 °F 49% 29.94 in 10.0 mi ESE 8.1 mph - N/A   Clear
5:37 PM 69.8 °F - 50.0 °F 49% 29.94 in 10.0 mi ESE 9.2 mph - N/A   Clear
5:56 PM 68.0 °F - 50.0 °F 52% 29.93 in 10.0 mi ESE 6.9 mph - N/A   Clear
6:16 PM 68.0 °F - 50.0 °F 52% 29.93 in 10.0 mi East 5.8 mph - N/A   Clear
6:37 PM 66.2 °F - 48.2 °F 52% 29.93 in 10.0 mi East 8.1 mph - N/A   Clear
6:56 PM 64.4 °F - 48.2 °F 56% 29.92 in 10.0 mi East 6.9 mph - N/A   Clear
7:16 PM 64.4 °F - 46.4 °F 52% 29.93 in 10.0 mi ESE 6.9 mph - N/A   Clear
7:37 PM 62.6 °F - 46.4 °F 55% 29.93 in 10.0 mi ESE 6.9 mph - N/A   Clear
7:56 PM 60.8 °F - 46.4 °F 59% 29.93 in 10.0 mi East 6.9 mph - N/A   Clear
8:16 PM 60.8 °F - 46.4 °F 59% 29.93 in 10.0 mi East 6.9 mph - N/A   Clear
8:37 PM 57.2 °F - 46.4 °F 67% 29.92 in 10.0 mi ESE 4.6 mph - N/A   Clear
8:56 PM 57.2 °F - 46.4 °F 67% 29.92 in 10.0 mi ESE 3.5 mph - N/A   Clear
9:17 PM 55.4 °F - 46.4 °F 72% 29.92 in 10.0 mi Calm Calm - N/A   Clear
9:36 PM 53.6 °F - 46.4 °F 77% 29.92 in 10.0 mi Calm Calm - N/A   Clear
10:17 PM 53.6 °F - 46.4 °F 77% 29.92 in 10.0 mi ESE 3.5 mph - N/A   Clear
10:36 PM 51.8 °F - 46.4 °F 82% 29.92 in 10.0 mi ESE 3.5 mph - N/A   Clear
10:56 PM 51.8 °F - 46.4 °F 82% 29.91 in 10.0 mi ESE 4.6 mph - N/A   Clear
11:16 PM 51.8 °F - 46.4 °F 82% 29.91 in 10.0 mi ESE 3.5 mph - N/A   Clear
11:36 PM 50.0 °F - 46.4 °F 87% 29.91 in 10.0 mi Calm Calm - N/A   Clear
11:57 PM 50.0 °F - 46.4 °F 87% 29.90 in 10.0 mi Calm Calm - N/A   Clear